Find Starlink 32618

NORAD ID: 62045 Int'l Des: 2024-216 Owner: SPXS Country: US Constellation: starlink operational
LEOCIRCULAR

Current View

Loading 3D Globe...

About Starlink 32618

Starlink 32618 (NORAD 62045) is a starlink constellation satellite (v2 mini) launched Nov 21, 2024 by SPXS of US. It operates in LEO, CIRCULAR orbit with a mass of 730.00 kg.

Upcoming Passes

Passes for default location (London). Set your location on the main map for personalized predictions.

Altitude History

Loading altitude history...

Two-Line Element Set

1 62045U 24216P 26262.29723009 .00009092 00000-0 33955-3 0 9990
2 62045 42.9994 243.0735 0001489 272.4357 87.6325 15.27577434103484
Epoch: Sep 19, 2026 • Age: 47 hours

Current Status

Altitude 494.8 km
Apogee / Perigee N/A
Velocity 7.62 km/s
Sub-Earth Point -41.93°S, 70.51°E
Launch Date Nov 21, 2024
Age 1.8 years
Type internet

Technical Details

Classification Payload
Mass 730.00 kg
Dry Mass 700.00 kg
Length 0.30 m
Span 29.00 m
Shape ? Box + pan
Manufacturer SPXS
Bus Type Starlink V2M
Phase Status In Orbit
Owner/State SPXS/US

Most Searched